Cahokia, IL

5:05 PM CDT on April 23, 2017 (GMT -0500)
Saint Louis Downtown

Weather History for KCPS - November, 2012

Change the Weather History Date:

Thursday, November 22, 2012

  Actual Average Record
Temperature  
Mean Temperature 54 °F -  
Max Temperature 68 °F 52 °F 73 °F (2010)
Min Temperature 41 °F 42 °F 17 °F (1964)
Degree Days  
Heating Degree Days 10    
Growing Degree Days 4 (Base 50)    
Moisture  
Dew Point 45 °F    
Average Humidity 76    
Maximum Humidity 96    
Minimum Humidity 40    
Precipitation  
Precipitation 0.14 in - - ()
Sea Level Pressure  
Sea Level Pressure 30.05 in    
Wind  
Wind Speed 7 mph (South)    
Max Wind Speed 14 mph    
Max Gust Speed 23 mph    
Visibility 7 miles    
Events Rain    
Averages and records for this station are not official NWS values.
T = Trace of Precipitation, MM = Missing Value Source: NWS Daily Summary

Daily Weather History Graph

Daily Weather History Graph

Search for Another Location

Airport or City:

Trip Planner

Search our weather history database for the weather conditions in past years. The results will help you decide how hot, cold, wet, or windy it might be!

Date:

Astronomy

Nov. 22, 2012 Rise Set
Actual Time 6:50 AM CST 4:42 PM CST
Civil Twilight 6:21 AM CST 5:11 PM CST
Nautical Twilight 5:49 AM CST 5:44 PM CST
Astronomical Twilight 5:17 AM CST 6:15 PM CST
Moon 1:25 PM CST (11/22) 1:14 AM CST (11/22)
Length of Visible Light 10h 49m
Length of Day
9h 52m
Waxing Gibbous, 71% of the Moon is Illuminated
Nov 22
Waxing Gibbous
Nov 28
Full
Dec 6
Last Quarter
Dec 13
New
Dec 19
First Quarter

Hourly Weather History & Observations

Time (CST) Temp. Windchill Dew Point Humidity Pressure Visibility Wind Dir Wind Speed Gust Speed Precip Events Conditions
12:53 AM 44.1 °F 41.5 °F 41.0 °F 89% 30.15 in 4.0 mi SSE 4.6 mph - N/A   Clear
1:53 AM 43.0 °F 41.3 °F 41.0 °F 93% 30.14 in 3.0 mi SSE 3.5 mph - N/A   Clear
3:53 AM 43.0 °F 38.8 °F 41.0 °F 93% 30.12 in 4.0 mi SSE 6.9 mph - N/A   Clear
4:53 AM 44.1 °F 40.1 °F 42.1 °F 93% 30.11 in 4.0 mi SSE 6.9 mph - N/A   Clear
5:53 AM 41.0 °F 37.1 °F 39.9 °F 96% 30.10 in 2.5 mi SSE 5.8 mph - N/A   Clear
6:19 AM 42.8 °F 40.1 °F 41.0 °F 93% 30.10 in 3.0 mi SSE 4.6 mph - N/A   Clear
7:53 AM 45.0 °F 41.2 °F 43.0 °F 93% 30.10 in 4.0 mi SSE 6.9 mph - N/A   Clear
8:00 AM 46.4 °F 42.9 °F 42.8 °F 87% 30.09 in 2.5 mi SSE 6.9 mph - N/A   Clear
8:07 AM 46.4 °F 42.9 °F 44.6 °F 93% 30.09 in 3.0 mi SSE 6.9 mph - N/A   Clear
8:53 AM 51.1 °F - 46.0 °F 83% 30.08 in 5.0 mi SSE 9.2 mph - N/A   Haze
9:53 AM 55.0 °F - 46.9 °F 74% 30.08 in 9.0 mi South 5.8 mph - N/A   Clear
10:53 AM 64.0 °F - 43.0 °F 46% 30.06 in 10.0 mi SSW 9.2 mph 21.9 mph N/A   Clear
1:53 PM 68.0 °F - 43.0 °F 40% 29.96 in 10.0 mi South 10.4 mph 20.7 mph N/A   Clear
2:53 PM 66.0 °F - 44.1 °F 45% 29.95 in 10.0 mi South 13.8 mph 23.0 mph N/A   Clear
3:53 PM 64.9 °F - 45.0 °F 48% 29.94 in 10.0 mi SSE 10.4 mph - N/A   Scattered Clouds
4:53 PM 63.0 °F - 44.1 °F 50% 29.95 in 10.0 mi South 11.5 mph 19.6 mph N/A   Clear
5:53 PM 61.0 °F - 44.1 °F 54% 29.97 in 10.0 mi South 5.8 mph - N/A   Clear
6:53 PM 60.1 °F - 46.9 °F 62% 29.99 in 10.0 mi South 5.8 mph - 0.00 in Rain Light Rain
7:53 PM 55.0 °F - 52.0 °F 89% 30.02 in 4.0 mi SW 4.6 mph - 0.08 in Rain Rain
8:53 PM 55.9 °F - 51.1 °F 84% 30.02 in 10.0 mi SW 6.9 mph - 0.05 in   Overcast
9:53 PM 57.0 °F - 52.0 °F 83% 30.02 in 10.0 mi SW 8.1 mph - 0.01 in   Overcast
10:53 PM 55.9 °F - 52.0 °F 87% 30.05 in 10.0 mi SW 4.6 mph - N/A   Overcast
11:53 PM 57.0 °F - 51.1 °F 81% 30.07 in 10.0 mi West 11.5 mph - N/A   Mostly Cloudy